Regional Weather Roundup
Issued by NWS Kansas City/Pleasant Hill, MO

Home | Current Version | Previous Version | Graphics & Text | Print | Product List | Glossary Off
Versions: 1 2 3 4 5 6 7 8 9 10 11 12 13 14 15 16 17 18 19 20 21 22 23 24 25 26 27 28 29 30 31 32 33 34 35 36 37 38 39 40 41 42 43 44 45 46 47 48 49 50

228
ASUS43 KEAX 230610
RWREAX

WEATHER ROUNDUP FOR EASTERN KANSAS AND NORTHWEST MISSOURI
NATIONAL WEATHER SERVICE KANSAS CITY/PLEASANT HILL MO
100 AM CDT SUN JUL 23 2017

KSZ040-057-103>105-MOZ028-029-037-043-230700-
...KANSAS CITY METROPOLITAN AREA...

CITY           SKY/WX    TMP DP  RH WIND       PRES   REMARKS
K.C. INTL      LGT RAIN  71  69  93 S6        29.97R
6HR MIN TEMP:  70; 6HR MAX TEMP:  91; 6HR PCP:  0.04;

K.C. DOWNTOWN  LGT RAIN  73  70  90 S5        29.96R
6HR MIN TEMP:  69; 6HR MAX TEMP:  95; 6HR PCP:  0.65;

LEES SUMMIT    LGT RAIN  72  70  93 CALM      29.97F
6HR MIN TEMP:  70; 6HR MAX TEMP:  98; 6HR PCP:  1.67;

OLATHE - IXD   LGT RAIN  70  67  90 E3        29.96S
6HR MIN TEMP:  68; 6HR MAX TEMP:  96; 6HR PCP:  1.85;

OLATHE - OJC   LGT RAIN  68  68 100 S7        29.97R
6HR MIN TEMP:  67; 6HR MAX TEMP:  96; 6HR PCP:  2.09;

LAWRENCE       LGT RAIN  73  72  96 CALM      29.93F

$$

MOZ001>008-011>017-020>025-030>033-038>040-044>046-053-054-230700-
...NORTHERN AND CENTRAL MISSOURI...

CITY           SKY/WX    TMP DP  RH WIND       PRES   REMARKS
ST. JOSEPH     CLOUDY    76  71  85 S7        29.94R
6HR MIN TEMP:  76; 6HR MAX TEMP:  87; 6HR PCP: TRACE;

MOSBY          RAIN      72  68  88 E5        29.96R
WHITEMAN AFB   TSTM      71  71 100 N12       29.94R
6HR MIN TEMP:  71; 6HR MAX TEMP:  97; 6HR PCP:  0.54;

CLINTON        LGT RAIN  72  68  88 N12       29.97R
SEDALIA        TSTM      72  71  97 N18G26    29.96R FOG
6HR MIN TEMP:  71; 6HR MAX TEMP:  95; 6HR PCP:  0.72;

WARSAW         NOT AVBL
CHILLICOTHE      N/A     77  71  82 VRB7G20   29.95R
6HR MIN TEMP:  77; 6HR MAX TEMP:  93;

KIRKSVILLE     CLOUDY    78  73  84 CALM      29.89R
6HR MIN TEMP:  77; 6HR MAX TEMP:  92;


$$

MOZ041-047>049-056>058-063>065-088>090-097-230700-
...EASTERN AND SOUTHERN MISSOURI...

CITY           SKY/WX    TMP DP  RH WIND       PRES   REMARKS
ST. LOUIS INTL TSTM      85  73  67 SW6       29.79F HX  91
6HR MIN TEMP:  85; 6HR MAX TEMP: 103; 6HR PCP:  0.02;

SPIRIT OF STL  CLOUDY    78  74  87 CALM      29.79F
COLUMBIA       CLOUDY    82  77  84 E9        29.85R THUNDER HX  90
JEFFERSON CITY CLOUDY    90  78  68 W7        29.84R HX 104
ROLLA          PTCLDY    80  72  76 SW8       29.87S
OSAGE BEACH    MOCLDY    86  73  65 W7        29.88R HX  93
SPRINGFIELD    CLOUDY    80  73  79 S8        29.89F
JOPLIN         PTCLDY    86  71  60 S12       29.88F HX  91
WEST PLAINS    CLEAR     80  72  76 SW6       29.92F

$$

IAZ060-094-KSZ022-034>040-054-083-096-NEZ052-066-093-230700-
...KANSAS...SOUTHEAST NEBRASKA AND IOWA...

CITY           SKY/WX    TMP DP  RH WIND       PRES   REMARKS
TOPEKA         LGT RAIN  73  72  96 SE8       29.89F
6HR MIN TEMP:  73; 6HR MAX TEMP:  92; 6HR PCP:  1.61;

MANHATTAN      MOCLDY    72  68  87 W14       29.89S
EMPORIA        CLOUDY    72  66  81 S17       29.96R THUNDER
CHANUTE        CLOUDY    81  66  60 N13       29.96R
WICHITA        PTCLDY    74  70  87 NE10      29.93F
OMAHA          MOCLDY    76  71  85 CALM      29.93S
LINCOLN        PTCLDY    72  70  93 N6        29.96R
FALLS CITY     CLOUDY    78  67  68 W7        29.92F
LAMONI         CLOUDY    77  74  90 N5        29.90F
DES MOINES     CLOUDY    79  73  82 NW6       29.87S

$$





USA.gov is the U.S. government's official web portal to all federal, state and local government web resources and services.